Regional Weather Roundup
Issued by NWS

Home | Current Version | Previous Version | Graphics & Text | Print | Product List | Glossary On
Versions: 1 2 3 4 5 6 7 8 9 10 11 12 13 14 15 16 17 18 19 20 21 22 23 24 25 26 27 28 29 30 31 32 33 34 35 36 37 38 39 40 41 42 43 44 45 46 47 48 49 50
000
ASUS45 KCYS 121210
RWRWY

WYOMING REGIONAL WEATHER ROUNDUP
NATIONAL WEATHER SERVICE CHEYENNE WY
600 AM MDT SAT JUL 12 2014

NOTE:  "FAIR" INDICATES FEW OR NO CLOUDS BELOW 12,000 FEET
WITH NO SIGNIFICANT WEATHER AND/OR OBSTRUCTIONS TO VISIBILITY.

WYZ001-121300-
YELLOWSTONE NATIONAL PARK

CITY           SKY/WX    TMP DP  RH WIND       PRES   REMARKS
LK YELLOWSTONE   N/A     47  46  97 W3        30.45R
6HR MIN TEMP:  45; 6HR MAX TEMP:  48;

W YELLOWSTONE  NOT AVBL

$$
WYZ002>013-054>058-071-098>099-121300-
NORTHERN WYOMING

CITY           SKY/WX    TMP DP  RH WIND       PRES   REMARKS
JACKSON        CLOUDY    52  50  93 CALM      30.36R
CODY           MOCLDY    57  52  82 CALM      30.28R
GREYBULL       MOCLDY    63  55  75 CALM      30.19R
6HR MIN TEMP:  62; 6HR MAX TEMP:  67;

WORLAND        MOCLDY    65  54  67 S7        30.19R
6HR MIN TEMP:  64; 6HR MAX TEMP:  67;

SHERIDAN       MOCLDY    61  55  81 CALM      30.18R
6HR MIN TEMP:  58; 6HR MAX TEMP:  63;

BUFFALO        MOCLDY    62  53  72 NW12      30.22R
6HR MIN TEMP:  59; 6HR MAX TEMP:  69;

GILLETTE       PTCLDY    57  54  89 S7        30.18R
6HR MIN TEMP:  57; 6HR MAX TEMP:  65;

HULETT         FAIR      57  54  88 MISG      30.20
NEWCASTLE      FAIR      57  55  94 NE3       30.19

$$
WYZ014>020-022>026-101>103-121300-
CENTRAL WYOMING

CITY           SKY/WX    TMP DP  RH WIND       PRES   REMARKS
BIG PINEY      CLEAR     47  43  86 NE6       30.39R
6HR MIN TEMP:  47; 6HR MAX TEMP:  61;

PINEDALE       SUNNY     45  45 100 CALM      30.40R
DUBOIS         FAIR      46  43  87 NW12      30.37S
LANDER         MOCLDY    57  54  89 W6        30.27R
6HR MIN TEMP:  57; 6HR MAX TEMP:  61;

RIVERTON       MOCLDY    58  57  97 NW7       30.28R
6HR MIN TEMP:  58; 6HR MAX TEMP:  61;

CASPER         PTCLDY    55  52  89 W5        30.24R
6HR MIN TEMP:  54; 6HR MAX TEMP:  62;

DOUGLAS        CLOUDY    61  56  83 NE8       30.22R
6HR MIN TEMP:  60; 6HR MAX TEMP:  63; 6HR PCP: TRACE;


$$
WYZ021-027>030-104>119-121300-
SOUTHERN WYOMING

CITY           SKY/WX    TMP DP  RH WIND       PRES   REMARKS
EVANSTON       CLEAR     55  51  86 NE5       30.36R
6HR MIN TEMP:  55; 6HR MAX TEMP:  61;

KEMMERER       SUNNY     50  46  87 N13       30.38S
FORT BRIDGER     N/A     54  51  92 N5        30.38S
ROCK SPRINGS   MOCLDY    57  50  77 E3        30.34R
6HR MIN TEMP:  56; 6HR MAX TEMP:  59;

DIXON          FAIR      59  56  90 E5        30.32S
RAWLINS        MOCLDY    59  55  87 W9        30.33R
6HR MIN TEMP:  58; 6HR MAX TEMP:  60;

SARATOGA       FAIR      54  52  94 N3        30.33R
LARAMIE        FOG       55  55 100 NE5       30.33R VSB 1/4
6HR MIN TEMP:  55; 6HR MAX TEMP:  59; 6HR PCP: TRACE;

CHEYENNE       MOCLDY    58  57  97 NW6       30.25R
6HR MIN TEMP:  58; 6HR MAX TEMP:  61; 6HR PCP:  0.08;

TORRINGTON     MOCLDY    62  60  93 N6        30.15R
6HR MIN TEMP:  62; 6HR MAX TEMP:  63;


$$



USA.gov is the U.S. government's official web portal to all federal, state and local government web resources and services.